^^
Datos históricos de la estación: Murcia-Puente Tocinos
Diario Informe para Julio 6, 2019 Unidades:  Métrico    Inglés   Ambas
Diario Semanal Mensual Anual Configurable
  Máximo: Mínimo: Media:
Temperatura: 38.4 °C 24.8 °C 29.9 °C
Punto de rocio: 22.0 °C 13.9 °C 20 °C
Humedad: 82% 24% 59%
Velocidad viento: 23.3km/h 0.0km/h 8.2km/h
Racha viento: 51.8km/h - -
Viento- - SSE
Presión: 1014.0 hPa 1007.9 hPa -
Precipitación: 0.0 mm    
Historical Graphs
 
 
Tabla de datos para Julio 6, 2019
Hora Temperatura Punto de rocio Presión Viento Velocidad viento Racha viento Humedad Intensidad lluvia(por hora) Nubes
00:00 26.7 °C 21.4 °C 1014.0 hPa ESE 6.4 km/h 8.4 km/h 73% 0.0 mm CLR
00:05 26.7 °C 21.4 °C 1013.9 hPa ESE 6.4 km/h 9.3 km/h 73% 0.0 mm CLR
00:10 26.7 °C 21.4 °C 1013.9 hPa East 5.8 km/h 9.5 km/h 73% 0.0 mm CLR
00:15 26.6 °C 21.1 °C 1013.9 hPa ESE 5.8 km/h 8.4 km/h 72% 0.0 mm CLR
00:20 26.6 °C 21.1 °C 1013.9 hPa SE 5.8 km/h 9.3 km/h 72% 0.0 mm CLR
00:25 26.6 °C 21.1 °C 1013.9 hPa SSE 5.8 km/h 5.0 km/h 72% 0.0 mm CLR
00:30 26.6 °C 21.1 °C 1013.9 hPa SSW 4.7 km/h 5.6 km/h 72% 0.0 mm CLR
00:35 26.7 °C 21.2 °C 1013.9 hPa NW 4.7 km/h 11.1 km/h 72% 0.0 mm CLR
00:40 26.5 °C 21.3 °C 1013.9 hPa North 5.8 km/h 7.6 km/h 73% 0.0 mm CLR
00:45 26.4 °C 21.2 °C 1013.9 hPa NW 5.8 km/h 7.4 km/h 73% 0.0 mm CLR
00:50 26.3 °C 21.3 °C 1013.7 hPa NNW 5.0 km/h 7.4 km/h 74% 0.0 mm CLR
00:55 26.3 °C 21.3 °C 1013.7 hPa NW 5.0 km/h 7.4 km/h 74% 0.0 mm CLR
01:00 26.3 °C 21.3 °C 1013.7 hPa NNW 4.7 km/h 8.4 km/h 74% 0.0 mm CLR
01:05 26.3 °C 21.3 °C 1013.5 hPa NW 4.7 km/h 4.7 km/h 74% 0.0 mm CLR
01:10 26.2 °C 21.4 °C 1013.5 hPa NW 5.0 km/h 7.4 km/h 75% 0.0 mm CLR
01:15 26.2 °C 21.6 °C 1013.5 hPa NW 5.0 km/h 9.5 km/h 76% 0.0 mm CLR
01:20 26.0 °C 21.7 °C 1013.3 hPa NW 5.0 km/h 9.5 km/h 77% 0.0 mm CLR
01:25 25.9 °C 21.6 °C 1013.3 hPa NW 5.0 km/h 11.1 km/h 77% 0.0 mm CLR
01:30 25.8 °C 21.7 °C 1013.3 hPa NW 6.9 km/h 13.0 km/h 78% 0.0 mm CLR
01:35 25.8 °C 21.7 °C 1013.2 hPa NW 6.9 km/h 8.4 km/h 78% 0.0 mm CLR
01:40 25.7 °C 21.8 °C 1013.2 hPa NW 6.4 km/h 10.3 km/h 79% 0.0 mm CLR
01:45 25.6 °C 21.7 °C 1013.2 hPa West 6.4 km/h 7.4 km/h 79% 0.0 mm CLR
01:50 25.6 °C 21.9 °C 1013.0 hPa West 5.8 km/h 9.3 km/h 80% 0.0 mm CLR
01:55 25.5 °C 21.8 °C 1013.0 hPa WNW 5.8 km/h 8.4 km/h 80% 0.0 mm CLR
02:00 25.4 °C 21.7 °C 1013.0 hPa West 5.0 km/h 9.3 km/h 80% 0.0 mm CLR
02:05 25.4 °C 21.9 °C 1013.4 hPa WSW 5.0 km/h 8.4 km/h 81% 0.0 mm CLR
02:10 25.4 °C 21.9 °C 1013.4 hPa WSW 5.0 km/h 5.6 km/h 81% 0.0 mm CLR
02:15 25.4 °C 21.9 °C 1013.4 hPa SSE 5.0 km/h 14.8 km/h 81% 0.0 mm CLR
02:20 25.4 °C 21.9 °C 1013.7 hPa WSW 6.4 km/h 5.6 km/h 81% 0.0 mm CLR
02:25 25.5 °C 22.0 °C 1013.7 hPa SSW 6.4 km/h 7.4 km/h 81% 0.0 mm CLR
02:30 25.6 °C 21.9 °C 1013.7 hPa NNW 4.7 km/h 5.8 km/h 80% 0.0 mm CLR
02:35 25.7 °C 22.0 °C 1014.0 hPa SE 4.7 km/h 13.7 km/h 80% 0.0 mm CLR
02:40 25.7 °C 21.8 °C 1014.0 hPa East 5.8 km/h 3.9 km/h 79% 0.0 mm CLR
02:45 25.7 °C 21.8 °C 1014.0 hPa East 5.8 km/h 5.0 km/h 79% 0.0 mm CLR
02:50 25.7 °C 21.8 °C 1013.5 hPa NE 3.2 km/h 3.7 km/h 79% 0.0 mm CLR
02:55 25.6 °C 21.9 °C 1013.5 hPa NE 3.2 km/h 6.9 km/h 80% 0.0 mm CLR
03:00 25.6 °C 21.9 °C 1013.5 hPa NE 3.2 km/h 5.6 km/h 80% 0.0 mm CLR
03:05 25.5 °C 21.8 °C 1013.2 hPa ENE 3.2 km/h 5.6 km/h 80% 0.0 mm CLR
03:10 25.4 °C 21.7 °C 1013.2 hPa NE 3.9 km/h 7.4 km/h 80% 0.0 mm CLR
03:15 25.4 °C 21.9 °C 1013.2 hPa NNE 3.9 km/h 5.6 km/h 81% 0.0 mm CLR
03:20 25.3 °C 21.8 °C 1013.2 hPa NNE 3.2 km/h 4.7 km/h 81% 0.0 mm CLR
03:25 25.4 °C 21.9 °C 1013.2 hPa East 3.2 km/h 5.6 km/h 81% 0.0 mm CLR
03:30 25.3 °C 21.8 °C 1013.2 hPa NE 3.9 km/h 6.4 km/h 81% 0.0 mm CLR
03:35 25.2 °C 21.5 °C 1013.1 hPa East 3.9 km/h 7.4 km/h 80% 0.0 mm CLR
03:40 25.2 °C 21.5 °C 1013.1 hPa ESE 4.7 km/h 8.4 km/h 80% 0.0 mm CLR
03:45 25.2 °C 21.5 °C 1013.1 hPa NE 4.7 km/h   80% 0.0 mm CLR
03:50 25.2 °C 21.3 °C 1012.9 hPa ENE 3.2 km/h 6.4 km/h 79% 0.0 mm CLR
03:55 25.2 °C 21.3 °C 1012.9 hPa East 3.2 km/h 3.9 km/h 79% 0.0 mm CLR
04:00 25.2 °C 21.1 °C 1012.9 hPa NE 3.9 km/h 7.4 km/h 78% 0.0 mm CLR
04:05 25.3 °C 21.2 °C 1012.6 hPa NNW 3.9 km/h 5.8 km/h 78% 0.0 mm CLR
04:10 25.2 °C 21.1 °C 1012.6 hPa NNW 3.9 km/h 3.7 km/h 78% 0.0 mm CLR
04:15 25.2 °C 21.1 °C 1012.6 hPa NNW 3.9 km/h 5.6 km/h 78% 0.0 mm CLR
04:20 25.2 °C 21.5 °C 1012.3 hPa NNW 2.9 km/h 5.6 km/h 80% 0.0 mm CLR
04:25 25.2 °C 21.5 °C 1012.3 hPa NNW 2.9 km/h 1.9 km/h 80% 0.0 mm CLR
04:30 25.2 °C 21.7 °C 1012.3 hPa NNW 3.2 km/h 5.6 km/h 81% 0.0 mm CLR
04:35 25.1 °C 21.6 °C 1012.1 hPa NW 3.2 km/h 5.6 km/h 81% 0.0 mm CLR
04:40 25.1 °C 21.6 °C 1012.1 hPa SW 2.9 km/h 5.6 km/h 81% 0.0 mm CLR
04:45 25.1 °C 21.8 °C 1012.1 hPa ESE 2.9 km/h 7.6 km/h 82% 0.0 mm CLR
04:50 25.1 °C 21.6 °C 1012.1 hPa ESE 3.9 km/h   81% 0.0 mm CLR
04:55 25.1 °C 21.6 °C 1012.1 hPa ESE 3.9 km/h 3.9 km/h 81% 0.0 mm CLR
05:00 25.1 °C 21.6 °C 1012.1 hPa ESE 2.9 km/h 5.0 km/h 81% 0.0 mm CLR
05:05 24.9 °C 21.2 °C 1012.1 hPa SE 2.9 km/h 3.9 km/h 80% 0.0 mm CLR
05:10 24.9 °C 21.2 °C 1012.1 hPa SE 3.2 km/h 7.4 km/h 80% 0.0 mm CLR
05:15 24.9 °C 21.2 °C 1012.1 hPa SE 3.2 km/h 5.6 km/h 80% 0.0 mm CLR
05:20 24.9 °C 21.0 °C 1012.2 hPa SSE 4.7 km/h 7.4 km/h 79% 0.0 mm CLR
05:25 25.0 °C 21.1 °C 1012.2 hPa SSE 4.7 km/h 3.7 km/h 79% 0.0 mm CLR
05:30 25.1 °C 21.2 °C 1012.2 hPa SSE 2.3 km/h 3.9 km/h 79% 0.0 mm CLR
05:35 25.1 °C 21.2 °C 1012.0 hPa SSW 2.3 km/h 7.4 km/h 79% 0.0 mm CLR
05:40 25.2 °C 21.3 °C 1012.0 hPa SW 3.2 km/h 5.0 km/h 79% 0.0 mm CLR
05:45 25.2 °C 21.3 °C 1012.0 hPa West 3.2 km/h 5.8 km/h 79% 0.0 mm CLR
05:50 25.2 °C 21.3 °C 1012.3 hPa SW 4.7 km/h 7.4 km/h 79% 0.0 mm CLR
05:55 25.2 °C 21.3 °C 1012.3 hPa SSW 4.7 km/h 9.3 km/h 79% 0.0 mm CLR
06:00 25.2 °C 21.3 °C 1012.3 hPa SSW 5.0 km/h 6.9 km/h 79% 0.0 mm CLR
06:05 25.2 °C 21.3 °C 1012.1 hPa SSW 5.0 km/h 9.3 km/h 79% 0.0 mm CLR
06:10 25.1 °C 21.0 °C 1012.1 hPa WSW 5.0 km/h 11.1 km/h 78% 0.0 mm CLR
06:15 25.1 °C 21.0 °C 1012.1 hPa WSW 5.0 km/h 6.4 km/h 78% 0.0 mm CLR
06:20 25.1 °C 21.0 °C 1012.0 hPa WSW 5.0 km/h 7.4 km/h 78% 0.0 mm CLR
06:25 25.1 °C 21.0 °C 1012.0 hPa WSW 5.0 km/h 7.4 km/h 78% 0.0 mm CLR
06:30 25.1 °C 21.0 °C 1012.0 hPa WSW 5.0 km/h 5.6 km/h 78% 0.0 mm CLR
06:35 25.1 °C 21.0 °C 1011.9 hPa West 5.0 km/h 7.6 km/h 78% 0.0 mm CLR
06:40 25.0 °C 20.9 °C 1011.9 hPa WSW 3.2 km/h 5.6 km/h 78% 0.0 mm CLR
06:45 25.0 °C 20.7 °C 1011.9 hPa WSW 3.2 km/h 5.6 km/h 77% 0.0 mm CLR
06:50 25.0 °C 20.7 °C 1011.6 hPa WSW 2.9 km/h 6.4 km/h 77% 0.0 mm CLR
06:55 25.0 °C 20.7 °C 1011.6 hPa West 2.9 km/h 7.4 km/h 77% 0.0 mm CLR
07:00 24.9 °C 20.6 °C 1011.6 hPa WSW 4.7 km/h 7.4 km/h 77% 0.0 mm CLR
07:05 24.9 °C 20.6 °C 1012.0 hPa WSW 4.7 km/h 5.8 km/h 77% 0.0 mm CLR
07:10 24.9 °C 20.6 °C 1012.0 hPa WSW 3.9 km/h 5.8 km/h 77% 0.0 mm CLR
07:15 24.9 °C 20.6 °C 1012.0 hPa SW 3.9 km/h 7.4 km/h 77% 0.0 mm CLR
07:20 24.8 °C 20.3 °C 1011.8 hPa SW 3.9 km/h 7.4 km/h 76% 0.0 mm CLR
07:25 24.9 °C 20.4 °C 1011.8 hPa WSW 3.9 km/h 9.3 km/h 76% 0.0 mm CLR
07:30 24.8 °C 20.3 °C 1011.8 hPa WSW 5.8 km/h 11.1 km/h 76% 0.0 mm CLR
07:35 24.8 °C 20.3 °C 1012.0 hPa WSW 5.8 km/h 7.4 km/h 76% 0.0 mm CLR
07:40 24.8 °C 20.5 °C 1012.0 hPa WSW 6.4 km/h 9.3 km/h 77% 0.0 mm CLR
07:45 24.8 °C 20.5 °C 1012.0 hPa SW 6.4 km/h 7.4 km/h 77% 0.0 mm CLR
07:50 24.8 °C 20.5 °C 1012.2 hPa SW 4.7 km/h 3.7 km/h 77% 0.0 mm CLR
07:55 24.9 °C 20.6 °C 1012.2 hPa SE 4.7 km/h 7.6 km/h 77% 0.0 mm CLR
08:00 24.8 °C 20.5 °C 1012.2 hPa ESE 3.9 km/h 5.6 km/h 77% 0.0 mm CLR
08:05 24.9 °C 20.8 °C 1012.1 hPa ESE 3.9 km/h 7.4 km/h 78% 0.0 mm CLR
08:10 24.8 °C 20.5 °C 1012.1 hPa SSE 3.9 km/h 7.4 km/h 77% 0.0 mm CLR
08:15 24.9 °C 20.6 °C 1012.1 hPa SE 3.9 km/h 7.4 km/h 77% 0.0 mm CLR
08:20 25.1 °C 20.8 °C 1012.2 hPa ESE 3.9 km/h 4.7 km/h 77% 0.0 mm CLR
08:25 25.1 °C 20.6 °C 1012.2 hPa SE 3.9 km/h 3.7 km/h 76% 0.0 mm CLR
08:30 25.4 °C 21.1 °C 1012.2 hPa SE 2.9 km/h 3.7 km/h 77% 0.0 mm CLR
08:35 25.7 °C 20.9 °C 1012.3 hPa SE 2.9 km/h   75% 0.0 mm CLR
08:40 25.9 °C 20.9 °C 1012.3 hPa Calm   3.7 km/h 74% 0.0 mm CLR
08:45 26.2 °C 21.0 °C 1012.3 hPa Calm   5.6 km/h 73% 0.0 mm CLR
08:50 26.3 °C 20.8 °C 1012.4 hPa Calm     72% 0.0 mm CLR
08:55 26.5 °C 20.8 °C 1012.4 hPa Calm   7.4 km/h 71% 0.0 mm CLR
09:00 26.6 °C 20.9 °C 1012.4 hPa NNW 2.9 km/h 3.7 km/h 71% 0.0 mm CLR
09:05 26.6 °C 20.9 °C 1012.0 hPa NNW 2.9 km/h 5.6 km/h 71% 0.0 mm CLR
09:10 26.6 °C 20.9 °C 1012.0 hPa West 2.3 km/h 7.4 km/h 71% 0.0 mm CLR
09:15 26.7 °C 21.0 °C 1012.0 hPa West 2.3 km/h 7.4 km/h 71% 0.0 mm CLR
09:20 26.6 °C 20.9 °C 1012.3 hPa WSW 3.9 km/h 7.4 km/h 71% 0.0 mm CLR
09:25 26.7 °C 21.0 °C 1012.3 hPa West 3.9 km/h 7.4 km/h 71% 0.0 mm CLR
09:30 26.8 °C 20.9 °C 1012.3 hPa South 4.7 km/h 5.6 km/h 70% 0.0 mm CLR
09:35 27.0 °C 20.8 °C 1012.0 hPa SE 4.7 km/h 7.4 km/h 69% 0.0 mm CLR
09:40 27.2 °C 20.8 °C 1012.0 hPa ESE 4.7 km/h 9.3 km/h 68% 0.0 mm CLR
09:45 27.3 °C 20.9 °C 1012.0 hPa SW 4.7 km/h 8.4 km/h 68% 0.0 mm CLR
09:50 27.3 °C 20.9 °C 1012.0 hPa SW 6.4 km/h 7.4 km/h 68% 0.0 mm CLR
09:55 27.4 °C 20.9 °C 1012.0 hPa South 6.4 km/h 7.4 km/h 68% 0.0 mm CLR
10:00 27.5 °C 21.1 °C 1012.0 hPa WSW 5.0 km/h 5.8 km/h 68% 0.0 mm CLR
10:05 27.8 °C 20.9 °C 1012.0 hPa SW 5.0 km/h 9.3 km/h 66% 0.0 mm CLR
10:10 27.9 °C 20.9 °C 1012.0 hPa ESE 5.0 km/h 7.4 km/h 66% 0.0 mm CLR
10:15 28.2 °C 21.2 °C 1012.0 hPa SSW 5.0 km/h 5.6 km/h 66% 0.0 mm CLR
10:20 28.3 °C 20.8 °C 1011.8 hPa WNW 3.9 km/h 7.4 km/h 64% 0.0 mm CLR
10:25 28.4 °C 20.7 °C 1011.8 hPa North 3.9 km/h 7.4 km/h 63% 0.0 mm CLR
10:30 28.6 °C 20.9 °C 1011.8 hPa West 4.7 km/h 8.4 km/h 63% 0.0 mm CLR
10:35 28.7 °C 20.7 °C 1011.7 hPa West 4.7 km/h 9.3 km/h 62% 0.0 mm CLR
10:40 28.8 °C 20.8 °C 1011.7 hPa ENE 5.0 km/h 4.7 km/h 62% 0.0 mm CLR
10:45 29.2 °C 20.6 °C 1011.7 hPa WNW 5.0 km/h 9.3 km/h 60% 0.0 mm CLR
10:50 29.3 °C 20.7 °C 1011.6 hPa WNW 4.7 km/h 7.6 km/h 60% 0.0 mm CLR
10:55 29.4 °C 20.6 °C 1011.6 hPa NW 4.7 km/h 9.3 km/h 59% 0.0 mm CLR
11:00 29.5 °C 20.7 °C 1011.6 hPa NW 5.0 km/h 3.9 km/h 59% 0.0 mm CLR
11:05 29.6 °C 20.4 °C 1011.4 hPa SSW 5.0 km/h 7.4 km/h 58% 0.0 mm CLR
11:10 29.7 °C 20.3 °C 1011.4 hPa SW 4.7 km/h 7.4 km/h 57% 0.0 mm CLR
11:15 29.9 °C 20.2 °C 1011.4 hPa West 4.7 km/h 7.4 km/h 56% 0.0 mm CLR
11:20 30.2 °C 20.2 °C 1011.4 hPa WSW 3.9 km/h 7.4 km/h 55% 0.0 mm CLR
11:25 30.3 °C 20.3 °C 1011.4 hPa SE 3.9 km/h 11.1 km/h 55% 0.0 mm CLR
11:30 30.4 °C 20.3 °C 1011.4 hPa SW 5.8 km/h 9.3 km/h 55% 0.0 mm CLR
11:35 30.4 °C 20.1 °C 1011.5 hPa NW 5.8 km/h 7.4 km/h 54% 0.0 mm CLR
11:40 30.6 °C 20.2 °C 1011.5 hPa ESE 4.7 km/h 5.6 km/h 54% 0.0 mm CLR
11:45 30.9 °C 20.2 °C 1011.5 hPa East 4.7 km/h 4.7 km/h 53% 0.0 mm CLR
11:50 31.2 °C 20.5 °C 1011.1 hPa SW 3.2 km/h 7.4 km/h 53% 0.0 mm CLR
11:55 31.3 °C 20.3 °C 1011.1 hPa South 3.2 km/h 6.9 km/h 52% 0.0 mm CLR
12:00 31.6 °C 20.6 °C 1011.1 hPa NE 4.7 km/h 7.4 km/h 52% 0.0 mm CLR
12:05 31.8 °C 20.4 °C 1011.0 hPa NNW 4.7 km/h 7.4 km/h 51% 0.0 mm CLR
12:10 31.9 °C 20.2 °C 1011.0 hPa North 4.7 km/h 9.3 km/h 50% 0.0 mm CLR
12:15 31.9 °C 20.2 °C 1011.0 hPa NW 4.7 km/h 7.6 km/h 50% 0.0 mm CLR
12:20 32.2 °C 20.4 °C 1011.1 hPa NE 5.8 km/h 11.1 km/h 50% 0.0 mm CLR
12:25 32.2 °C 20.4 °C 1011.1 hPa NNE 5.8 km/h 7.4 km/h 50% 0.0 mm CLR
12:30 32.3 °C 20.6 °C 1011.1 hPa NE 6.4 km/h 9.3 km/h 50% 0.0 mm CLR
12:35 32.3 °C 20.6 °C 1011.1 hPa NNE 6.4 km/h 7.4 km/h 50% 0.0 mm CLR
12:40 32.7 °C 20.6 °C 1011.1 hPa NE 6.9 km/h 14.0 km/h 49% 0.0 mm CLR
12:45 32.8 °C 20.7 °C 1011.1 hPa NE 6.9 km/h 14.8 km/h 49% 0.0 mm CLR
12:50 33.1 °C 20.6 °C 1010.7 hPa NE 8.7 km/h 16.7 km/h 48% 0.0 mm CLR
12:55 33.2 °C 20.4 °C 1010.7 hPa NNE 8.7 km/h 16.7 km/h 47% 0.0 mm CLR
13:00 33.3 °C 20.8 °C 1010.7 hPa NE 11.1 km/h 14.8 km/h 48% 0.0 mm CLR
13:05 33.5 °C 20.3 °C 1010.7 hPa NE 11.1 km/h 10.3 km/h 46% 0.0 mm CLR
13:10 33.7 °C 20.5 °C 1010.7 hPa NE 10.0 km/h 14.8 km/h 46% 0.0 mm CLR
13:15 33.8 °C 20.2 °C 1010.7 hPa ESE 10.0 km/h 14.8 km/h 45% 0.0 mm CLR
13:20 34.1 °C 20.5 °C 1010.6 hPa NNE 10.3 km/h 18.5 km/h 45% 0.0 mm CLR
13:25 34.4 °C 20.4 °C 1010.6 hPa NW 10.3 km/h 11.1 km/h 44% 0.0 mm CLR
13:30 34.7 °C 20.7 °C 1010.6 hPa East 11.9 km/h 16.7 km/h 44% 0.0 mm CLR
13:35 34.8 °C 20.7 °C 1010.6 hPa ENE 11.9 km/h 11.1 km/h 44% 0.0 mm CLR
13:40 34.9 °C 20.8 °C 1010.6 hPa NE 11.1 km/h 22.2 km/h 44% 0.0 mm CLR
13:45 35.1 °C 21.0 °C 1010.6 hPa NNE 11.1 km/h 31.5 km/h 44% 0.0 mm CLR
13:50 35.2 °C 21.5 °C 1010.4 hPa ENE 16.1 km/h 18.0 km/h 45% 0.0 mm CLR
13:55 35.5 °C 21.4 °C 1010.4 hPa NE 16.1 km/h 24.5 km/h 44% 0.0 mm CLR
14:00 35.6 °C 21.8 °C 1010.4 hPa East 13.0 km/h 20.4 km/h 45% 0.0 mm CLR
14:05 35.4 °C 21.3 °C 1010.5 hPa NE 13.0 km/h 20.4 km/h 44% 0.0 mm CLR
14:10 35.4 °C 20.6 °C 1010.5 hPa NNE 14.0 km/h 16.7 km/h 42% 0.0 mm CLR
14:15 35.6 °C 19.5 °C 1010.5 hPa ENE 14.0 km/h 20.4 km/h 39% 0.0 mm CLR
14:20 35.8 °C 21.3 °C 1010.1 hPa East 10.3 km/h 20.4 km/h 43% 0.0 mm CLR
14:25 35.5 °C 21.0 °C 1010.1 hPa ENE 10.3 km/h 13.0 km/h 43% 0.0 mm CLR
14:30 35.7 °C 18.8 °C 1010.1 hPa ESE 10.3 km/h 9.3 km/h 37% 0.0 mm CLR
14:35 36.2 °C 20.1 °C 1009.8 hPa ESE 10.3 km/h 16.7 km/h 39% 0.0 mm CLR
14:40 36.3 °C 20.1 °C 1009.8 hPa ESE 8.7 km/h 19.8 km/h 39% 0.0 mm CLR
14:45 35.9 °C 19.8 °C 1009.8 hPa SE 8.7 km/h 16.7 km/h 39% 0.0 mm CLR
14:50 36.0 °C 20.3 °C 1009.6 hPa SE 13.0 km/h 15.6 km/h 40% 0.0 mm CLR
14:55 36.4 °C 19.8 °C 1009.6 hPa SE 13.0 km/h 22.5 km/h 38% 0.0 mm CLR
15:00 36.5 °C 19.9 °C 1009.6 hPa East 11.9 km/h 13.0 km/h 38% 0.0 mm CLR
15:05 36.7 °C 19.6 °C 1009.4 hPa ESE 11.9 km/h 14.8 km/h 37% 0.0 mm CLR
15:10 36.9 °C 19.8 °C 1009.4 hPa ENE 10.3 km/h 11.1 km/h 37% 0.0 mm CLR
15:15 37.3 °C 17.8 °C 1009.4 hPa South 10.3 km/h 13.0 km/h 32% 0.0 mm CLR
15:20 37.7 °C 18.7 °C 1009.4 hPa ESE 8.4 km/h 13.0 km/h 33% 0.0 mm CLR
15:25 38.1 °C 15.3 °C 1009.4 hPa South 8.4 km/h 33.3 km/h 26% 0.0 mm CLR
15:30 38.3 °C 14.2 °C 1009.4 hPa South 16.4 km/h 27.8 km/h 24% 0.0 mm CLR
15:35 38.4 °C 14.9 °C 1009.6 hPa SSW 16.4 km/h 37.0 km/h 25% 0.0 mm CLR
15:40 38.3 °C 14.8 °C 1009.6 hPa SSW 22.0 km/h 27.8 km/h 25% 0.0 mm CLR
15:45 38.1 °C 14.7 °C 1009.6 hPa South 22.0 km/h 29.6 km/h 25% 0.0 mm CLR
15:50 37.9 °C 15.7 °C 1009.5 hPa South 19.0 km/h 22.2 km/h 27% 0.0 mm CLR
15:55 37.7 °C 15.5 °C 1009.5 hPa SE 19.0 km/h 18.5 km/h 27% 0.0 mm CLR
16:00 37.6 °C 16.6 °C 1009.5 hPa South 13.7 km/h 18.5 km/h 29% 0.0 mm CLR
16:04 37.3 °C 18.3 °C 1009.3 hPa ESE 13.7 km/h 16.7 km/h 33% 0.0 mm CLR
16:09 37.1 °C 18.2 °C 1009.3 hPa SE 11.9 km/h 18.5 km/h 33% 0.0 mm CLR
16:14 37.2 °C 17.7 °C 1009.3 hPa East 11.9 km/h 16.7 km/h 32% 0.0 mm CLR
16:19 37.0 °C 18.6 °C 1009.2 hPa ENE 11.1 km/h 14.8 km/h 34% 0.0 mm CLR
16:24 37.0 °C 17.6 °C 1009.2 hPa ESE 11.1 km/h 14.8 km/h 32% 0.0 mm CLR
16:29 37.1 °C 17.7 °C 1009.2 hPa ESE 8.7 km/h 11.1 km/h 32% 0.0 mm CLR
16:34 37.2 °C 17.2 °C 1009.3 hPa East 8.7 km/h 9.5 km/h 31% 0.0 mm CLR
16:39 37.3 °C 16.8 °C 1009.3 hPa SE 5.8 km/h 8.7 km/h 30% 0.0 mm CLR
16:44 37.6 °C 16.0 °C 1009.3 hPa South 5.8 km/h 18.5 km/h 28% 0.0 mm CLR
16:49 37.7 °C 16.1 °C 1009.5 hPa SW 11.9 km/h 22.2 km/h 28% 0.0 mm CLR
16:54 37.7 °C 16.1 °C 1009.5 hPa South 11.9 km/h 20.4 km/h 28% 0.0 mm CLR
16:59 37.9 °C 15.7 °C 1009.5 hPa WNW 14.0 km/h 29.1 km/h 27% 0.0 mm CLR
17:04 37.8 °C 15.0 °C 1011.3 hPa WNW 14.0 km/h 51.8 km/h 26% 0.0 mm CLR
17:09 37.3 °C 13.9 °C 1011.3 hPa SW 23.3 km/h 37.0 km/h 25% 0.0 mm CLR
17:14 37.1 °C 15.0 °C 1011.3 hPa WSW 23.3 km/h 18.5 km/h 27% 0.0 mm CLR
17:19 36.7 °C 14.1 °C 1010.7 hPa SW 17.2 km/h 24.1 km/h 26% 0.0 mm CLR
17:24 36.3 °C 14.3 °C 1010.7 hPa SW 17.2 km/h 16.1 km/h 27% 0.0 mm CLR
17:29 36.1 °C 14.7 °C 1010.7 hPa SW 13.7 km/h 18.0 km/h 28% 0.0 mm CLR
17:34 35.9 °C 14.6 °C 1010.0 hPa SW 13.7 km/h 11.1 km/h 28% 0.0 mm CLR
17:39 35.9 °C 15.1 °C 1010.0 hPa West 8.4 km/h 4.7 km/h 29% 0.0 mm CLR
17:44 36.1 °C 14.7 °C 1010.0 hPa WSW 8.4 km/h 7.4 km/h 28% 0.0 mm CLR
17:49 36.2 °C 14.2 °C 1009.4 hPa South 3.9 km/h 11.1 km/h 27% 0.0 mm CLR
17:54 36.3 °C 14.3 °C 1009.4 hPa South 3.9 km/h 5.6 km/h 27% 0.0 mm CLR
17:59 36.3 °C 14.9 °C 1009.4 hPa SE 4.7 km/h 5.8 km/h 28% 0.0 mm CLR
18:04 36.3 °C 14.3 °C 1009.1 hPa South 4.7 km/h 7.4 km/h 27% 0.0 mm CLR
18:09 36.3 °C 14.9 °C 1009.1 hPa East 3.2 km/h 8.4 km/h 28% 0.0 mm CLR
18:14 36.3 °C 14.9 °C 1009.1 hPa ENE 3.2 km/h 3.7 km/h 28% 0.0 mm CLR
18:19 36.2 °C 14.8 °C 1009.1 hPa ENE 3.9 km/h 7.4 km/h 28% 0.0 mm CLR
18:24 36.1 °C 15.3 °C 1009.1 hPa ENE 3.9 km/h 11.1 km/h 29% 0.0 mm CLR
18:29 35.9 °C 15.6 °C 1009.1 hPa NE 6.9 km/h 11.1 km/h 30% 0.0 mm CLR
18:34 35.8 °C 15.5 °C 1009.0 hPa NE 6.9 km/h 11.1 km/h 30% 0.0 mm CLR
18:39 35.7 °C 15.9 °C 1009.0 hPa ENE 6.4 km/h 7.4 km/h 31% 0.0 mm CLR
18:44 35.6 °C 15.9 °C 1009.0 hPa NE 6.4 km/h 11.1 km/h 31% 0.0 mm CLR
18:49 35.2 °C 15.5 °C 1008.8 hPa NE 7.6 km/h 13.0 km/h 31% 0.0 mm CLR
18:54 35.0 °C 15.3 °C 1008.8 hPa NE 7.6 km/h 14.8 km/h 31% 0.0 mm CLR
18:59 34.9 °C 15.3 °C 1008.8 hPa NNE 10.0 km/h 11.9 km/h 31% 0.0 mm CLR
19:04 34.9 °C 15.3 °C 1008.8 hPa NNE 10.0 km/h 14.8 km/h 31% 0.0 mm CLR
19:09 34.9 °C 15.8 °C 1008.8 hPa NNE 8.7 km/h 9.3 km/h 32% 0.0 mm CLR
19:14 34.9 °C 15.3 °C 1008.8 hPa ENE 8.7 km/h 16.7 km/h 31% 0.0 mm CLR
19:19 34.7 °C 17.9 °C 1008.3 hPa NE 11.1 km/h 18.5 km/h 37% 0.0 mm CLR
19:24 34.2 °C 19.8 °C 1008.3 hPa NE 11.1 km/h 18.5 km/h 43% 0.0 mm CLR
19:29 33.8 °C 20.2 °C 1008.3 hPa NE 13.7 km/h 22.2 km/h 45% 0.0 mm CLR
19:34 33.4 °C 20.9 °C 1008.0 hPa NE 13.7 km/h 20.4 km/h 48% 0.0 mm CLR
19:39 33.0 °C 21.2 °C 1008.0 hPa North 16.1 km/h 24.1 km/h 50% 0.0 mm CLR
19:44 32.7 °C 20.9 °C 1008.0 hPa NE 16.1 km/h 22.2 km/h 50% 0.0 mm CLR
19:49 32.5 °C 20.7 °C 1008.3 hPa NNE 16.4 km/h 29.6 km/h 50% 0.0 mm CLR
19:54 32.1 °C 21.0 °C 1008.3 hPa NE 16.4 km/h 29.6 km/h 52% 0.0 mm CLR
19:59 31.8 °C 21.1 °C 1008.3 hPa NNE 20.1 km/h 32.3 km/h 53% 0.0 mm CLR
20:04 31.7 °C 21.3 °C 1007.9 hPa NNE 20.1 km/h 25.9 km/h 54% 0.0 mm CLR
20:09 31.3 °C 21.5 °C 1007.9 hPa NNE 19.8 km/h 29.6 km/h 56% 0.0 mm CLR
20:14 31.1 °C 21.6 °C 1007.9 hPa ENE 19.8 km/h 25.9 km/h 57% 0.0 mm CLR
20:19 30.9 °C 21.4 °C 1008.3 hPa North 16.4 km/h 24.5 km/h 57% 0.0 mm CLR
20:24 30.7 °C 21.5 °C 1008.3 hPa NNE 16.4 km/h 27.8 km/h 58% 0.0 mm CLR
20:29 30.4 °C 21.2 °C 1008.3 hPa ENE 20.1 km/h 25.9 km/h 58% 0.0 mm CLR
20:34 30.3 °C 21.1 °C 1008.5 hPa NNE 20.1 km/h 25.9 km/h 58% 0.0 mm CLR
20:39 30.2 °C 21.0 °C 1008.5 hPa ENE 16.4 km/h 20.4 km/h 58% 0.0 mm CLR
20:44 30.2 °C 21.0 °C 1008.5 hPa NE 16.4 km/h 20.4 km/h 58% 0.0 mm CLR
20:49 30.3 °C 21.1 °C 1008.7 hPa North 14.0 km/h 18.5 km/h 58% 0.0 mm CLR
20:54 30.2 °C 21.3 °C 1008.7 hPa ENE 14.0 km/h 20.4 km/h 59% 0.0 mm CLR
20:59 30.1 °C 21.2 °C 1008.7 hPa NE 14.0 km/h 22.2 km/h 59% 0.0 mm CLR
21:04 30.2 °C 21.0 °C 1009.3 hPa ESE 14.0 km/h 20.4 km/h 58% 0.0 mm CLR
21:09 30.2 °C 21.0 °C 1009.3 hPa ESE 16.4 km/h 24.1 km/h 58% 0.0 mm CLR
21:14 29.7 °C 21.4 °C 1009.3 hPa ESE 16.4 km/h 33.3 km/h 61% 0.0 mm CLR
21:19 29.6 °C 21.6 °C 1009.3 hPa ESE 17.2 km/h 19.0 km/h 62% 0.0 mm CLR
21:24 29.4 °C 21.3 °C 1009.3 hPa SE 17.2 km/h 22.2 km/h 62% 0.0 mm CLR
21:29 29.6 °C 21.0 °C 1009.3 hPa SSE 14.0 km/h 16.7 km/h 60% 0.0 mm CLR
21:34 29.8 °C 20.7 °C 1010.1 hPa South 14.0 km/h 22.0 km/h 58% 0.0 mm CLR
21:39 30.3 °C 20.6 °C 1010.1 hPa SSE 12.2 km/h 16.7 km/h 56% 0.0 mm CLR
21:44 30.7 °C 20.6 °C 1010.1 hPa SW 12.2 km/h 13.0 km/h 55% 0.0 mm CLR
21:49 30.7 °C 21.5 °C 1010.7 hPa SW 11.9 km/h 22.2 km/h 58% 0.0 mm CLR
21:54 30.1 °C 21.5 °C 1010.7 hPa SSW 11.9 km/h 25.9 km/h 60% 0.0 mm CLR
21:59 29.6 °C 21.0 °C 1010.7 hPa South 20.9 km/h 31.5 km/h 60% 0.0 mm CLR
22:04 29.4 °C 20.8 °C 1011.5 hPa SE 20.9 km/h 29.6 km/h 60% 0.0 mm CLR
22:09 29.3 °C 21.0 °C 1011.5 hPa East 18.3 km/h 18.5 km/h 61% 0.0 mm CLR
22:14 29.1 °C 21.1 °C 1011.5 hPa SSE 18.3 km/h 13.0 km/h 62% 0.0 mm CLR
22:19 29.0 °C 21.2 °C 1011.5 hPa West 8.7 km/h 9.5 km/h 63% 0.0 mm CLR
22:24 28.8 °C 21.3 °C 1011.5 hPa West 8.7 km/h 7.4 km/h 64% 0.0 mm CLR
22:29 28.7 °C 21.2 °C 1011.5 hPa WNW 6.4 km/h 9.3 km/h 64% 0.0 mm CLR
22:34 28.7 °C 21.2 °C 1012.3 hPa SSW 6.4 km/h 16.4 km/h 64% 0.0 mm CLR
22:39 28.5 °C 20.8 °C 1012.3 hPa WSW 10.0 km/h 24.1 km/h 63% 0.0 mm CLR
22:44 28.5 °C 20.2 °C 1012.3 hPa SW 10.0 km/h 33.3 km/h 61% 0.0 mm CLR
22:49 28.6 °C 20.1 °C 1012.6 hPa SSW 19.0 km/h 29.6 km/h 60% 0.0 mm CLR
22:54 28.7 °C 19.6 °C 1012.6 hPa SSW 19.0 km/h 24.1 km/h 58% 0.0 mm CLR
22:59 28.8 °C 19.2 °C 1012.6 hPa South 19.8 km/h 27.8 km/h 56% 0.0 mm CLR
23:04 28.9 °C 19.5 °C 1013.2 hPa SE 19.8 km/h 24.1 km/h 57% 0.0 mm CLR
23:09 28.6 °C 19.8 °C 1013.2 hPa SSE 18.3 km/h 27.8 km/h 59% 0.0 mm CLR
23:14 28.3 °C 20.1 °C 1013.2 hPa SSE 18.3 km/h 27.8 km/h 61% 0.0 mm CLR
23:19 28.3 °C 20.1 °C 1012.9 hPa SE 16.4 km/h 20.4 km/h 61% 0.0 mm CLR
23:24 28.3 °C 19.8 °C 1012.9 hPa ESE 16.4 km/h 16.4 km/h 60% 0.0 mm CLR
23:29 28.3 °C 19.5 °C 1012.9 hPa SSW 10.3 km/h 14.8 km/h 59% 0.0 mm CLR
23:34 28.3 °C 19.5 °C 1012.6 hPa North 10.3 km/h 4.7 km/h 59% 0.0 mm CLR
23:39 28.4 °C 19.6 °C 1012.6 hPa ENE 6.4 km/h 13.0 km/h 59% 0.0 mm CLR
23:44 28.4 °C 19.6 °C 1012.6 hPa NE 6.4 km/h 7.4 km/h 59% 0.0 mm CLR
23:49 28.4 °C 19.9 °C 1011.9 hPa ENE 6.9 km/h 13.0 km/h 60% 0.0 mm CLR
23:54 28.3 °C 20.1 °C 1011.9 hPa NE 6.9 km/h 14.8 km/h 61% 0.0 mm CLR
23:59 28.2 °C 19.7 °C 1011.9 hPa NE 10.0 km/h 16.7 km/h 60% 0.0 mm CLR
Murcia-Puente Tocinos, España
Compliments of Weather Underground - 2.75 mb

La estación de MeteoMurcia.com, publica sus datos en los siguientes proyectos:

Weather Underground PWS IMURCIAP2 Meteoclimatic www.awekas.at

W3Counter
Web Analytics